When you browse on this site, cookies collect data to enhance your experience and personalize the content and advertising you see.
Visit our Privacy Policy to learn more. By continuing to use the site, you agree to this use of cookies and data.
  • In Hungary
  • List of Countries
  • For 7 days
  • Water Temperature
  • Satellite Maps
  • Weather Map
  • News
  • Weather Widgets
  • user-avatar
    Login

    Hourly Weather Bulkowo

    Today, 18 November, Sunday

    Time Temperature Precipitation Wind Pressure Humidity
    00:00 -3°C° 0 mm 2 mps 731 mmHg 62%
    01:00 -4°C° 0 mm 2 mps 731 mmHg 63%
    02:00 -4°C° 0 mm 2 mps 730 mmHg 64%
    03:00 -4°C° 0 mm 2 mps 730 mmHg 65%
    04:00 -2°C° 0 mm 1 mps 730 mmHg 66%
    05:00 -2°C° 0 mm 1 mps 729 mmHg 67%
    06:00 -2°C° 0 mm 1 mps 729 mmHg 68%
    07:00 -2°C° 0 mm 1 mps 728 mmHg 70%
    08:00 -1°C° 0 mm 1 mps 728 mmHg 65%
    09:00 0°C° 0 mm 1 mps 728 mmHg 61%
    10:00 +1°C° 0 mm 2 mps 728 mmHg 56%
    11:00 +1°C° 0 mm 2 mps 727 mmHg 55%
    12:00 +2°C° 0 mm 2 mps 727 mmHg 54%
    13:00 +3°C° 0 mm 2 mps 726 mmHg 52%
    14:00 +2°C° 0.2 mm 2 mps 726 mmHg 55%
    15:00 +1°C° 0.2 mm 2 mps 725 mmHg 58%
    16:00 -1°C° 0.2 mm 2 mps 725 mmHg 60%
    17:00 -2°C° 0.1 mm 2 mps 724 mmHg 62%
    18:00 -2°C° 0.1 mm 2 mps 724 mmHg 63%
    19:00 -2°C° 0.1 mm 2 mps 724 mmHg 65%
    20:00 -3°C° 0 mm 2 mps 723 mmHg 67%
    21:00 -3°C° 0 mm 2 mps 723 mmHg 70%
    22:00 -3°C° 0 mm 2 mps 723 mmHg 72%
    23:00 -3°C° 0 mm 2 mps 723 mmHg 73%

    Tomorrow, 19 November, Monday

    Time Temperature Precipitation Wind Pressure Humidity
    00:00 -4°C° 0 mm 2 mps 723 mmHg 75%
    01:00 -4°C° 0 mm 2 mps 722 mmHg 76%
    02:00 -4°C° 0 mm 2 mps 722 mmHg 77%
    03:00 -4°C° 0 mm 2 mps 722 mmHg 78%
    04:00 -4°C° 0 mm 2 mps 722 mmHg 79%
    05:00 -4°C° 0 mm 2 mps 721 mmHg 81%
    06:00 -4°C° 0 mm 2 mps 721 mmHg 82%
    07:00 -4°C° 0 mm 2 mps 721 mmHg 84%
    08:00 -3°C° 0 mm 2 mps 721 mmHg 79%
    09:00 -2°C° 0 mm 3 mps 722 mmHg 73%
    10:00 -1°C° 0 mm 3 mps 722 mmHg 67%
    11:00 -1°C° 0 mm 3 mps 722 mmHg 64%
    12:00 -1°C° 0 mm 4 mps 722 mmHg 62%
    13:00 -1°C° 0 mm 4 mps 722 mmHg 59%
    14:00 -1°C° 0 mm 3 mps 722 mmHg 62%
    15:00 -1°C° 0 mm 3 mps 722 mmHg 64%
    16:00 -2°C° 0 mm 3 mps 722 mmHg 67%
    17:00 -2°C° 0 mm 3 mps 722 mmHg 68%
    18:00 -4°C° 0 mm 3 mps 722 mmHg 69%
    19:00 -4°C° 0 mm 3 mps 722 mmHg 70%
    20:00 -4°C° 0 mm 3 mps 722 mmHg 70%
    21:00 -4°C° 0 mm 3 mps 722 mmHg 71%
    22:00 -5°C° 0 mm 3 mps 723 mmHg 72%
    23:00 -5°C° 0 mm 3 mps 723 mmHg 73%

    Day after tomorrow, 20 November, Tuesday

    Time Temperature Precipitation Wind Pressure Humidity
    00:00 -5°C° 0 mm 3 mps 722 mmHg 74%
    01:00 -5°C° 0 mm 3 mps 722 mmHg 75%
    02:00 -5°C° 0 mm 3 mps 722 mmHg 75%
    03:00 -5°C° 0 mm 3 mps 722 mmHg 76%
    04:00 -5°C° 0 mm 3 mps 721 mmHg 76%
    05:00 -5°C° 0 mm 3 mps 721 mmHg 78%
    06:00 -5°C° 0 mm 3 mps 721 mmHg 80%
    07:00 -5°C° 0 mm 3 mps 721 mmHg 82%
    08:00 -4°C° 0 mm 3 mps 721 mmHg 78%
    09:00 -2°C° 0 mm 3 mps 721 mmHg 73%
    10:00 -1°C° 0 mm 3 mps 721 mmHg 69%
    11:00 -1°C° 0 mm 4 mps 721 mmHg 68%
    12:00 -1°C° 0 mm 4 mps 720 mmHg 67%
    13:00 0°C° 0 mm 4 mps 719 mmHg 66%
    14:00 0°C° 0.3 mm 4 mps 719 mmHg 69%
    15:00 -1°C° 0.3 mm 4 mps 719 mmHg 73%
    16:00 -1°C° 0.3 mm 4 mps 719 mmHg 76%
    17:00 -1°C° 0.3 mm 4 mps 718 mmHg 79%
    18:00 -1°C° 0.3 mm 4 mps 718 mmHg 81%
    19:00 -1°C° 0.3 mm 4 mps 718 mmHg 83%
    20:00 -2°C° 0.4 mm 4 mps 718 mmHg 85%
    21:00 -1°C° 0.4 mm 3 mps 718 mmHg 88%
    22:00 -1°C° 0.4 mm 3 mps 718 mmHg 91%
    23:00 -1°C° 0.1 mm 3 mps 718 mmHg 91%

    21 November, Wednesday

    Time Temperature Precipitation Wind Pressure Humidity
    00:00 -1°C° 0.1 mm 3 mps 718 mmHg 91%
    01:00 -1°C° 0.1 mm 3 mps 718 mmHg 91%
    02:00 -1°C° 0.1 mm 3 mps 718 mmHg 91%
    03:00 -1°C° 0.1 mm 3 mps 718 mmHg 91%
    04:00 -1°C° 0.1 mm 2 mps 718 mmHg 91%
    05:00 -1°C° 0.2 mm 2 mps 718 mmHg 91%
    06:00 -1°C° 0.2 mm 3 mps 718 mmHg 91%
    07:00 -1°C° 0.2 mm 3 mps 718 mmHg 91%
    08:00 0°C° 0.2 mm 3 mps 719 mmHg 90%
    09:00 0°C° 0.2 mm 3 mps 719 mmHg 90%
    10:00 0°C° 0.2 mm 3 mps 719 mmHg 89%
    11:00 0°C° 0.1 mm 3 mps 720 mmHg 89%
    12:00 +1°C° 0.1 mm 3 mps 720 mmHg 89%
    13:00 +1°C° 0.1 mm 3 mps 720 mmHg 89%
    14:00 +1°C° 0 mm 3 mps 720 mmHg 89%
    15:00 0°C° 0 mm 3 mps 720 mmHg 90%
    16:00 0°C° 0 mm 3 mps 720 mmHg 90%
    17:00 0°C° 0 mm 3 mps 720 mmHg 91%
    18:00 0°C° 0 mm 3 mps 721 mmHg 91%
    19:00 0°C° 0 mm 3 mps 721 mmHg 91%
    20:00 0°C° 0 mm 3 mps 721 mmHg 91%
    21:00 0°C° 0 mm 3 mps 721 mmHg 91%
    22:00 0°C° 0 mm 3 mps 721 mmHg 91%
    23:00 0°C° 0 mm 3 mps 721 mmHg 91%

    22 November, Thursday

    Time Temperature Precipitation Wind Pressure Humidity
    00:00 0°C° 0 mm 3 mps 722 mmHg 91%
    01:00 -1°C° 0 mm 3 mps 722 mmHg 91%
    02:00 -1°C° 0 mm 3 mps 722 mmHg 91%
    03:00 -1°C° 0 mm 3 mps 722 mmHg 91%
    04:00 -1°C° 0 mm 3 mps 722 mmHg 91%
    05:00 -1°C° 0 mm 3 mps 722 mmHg 91%
    06:00 -1°C° 0 mm 3 mps 722 mmHg 91%
    07:00 -1°C° 0 mm 3 mps 722 mmHg 91%
    08:00 0°C° 0 mm 3 mps 723 mmHg 90%
    09:00 0°C° 0 mm 3 mps 723 mmHg 88%
    10:00 +1°C° 0 mm 3 mps 723 mmHg 87%
    11:00 +1°C° 0 mm 3 mps 723 mmHg 86%
    12:00 +2°C° 0 mm 3 mps 723 mmHg 84%
    13:00 +2°C° 0 mm 3 mps 724 mmHg 83%
    14:00 +2°C° 0 mm 3 mps 724 mmHg 86%
    15:00 +2°C° 0 mm 2 mps 724 mmHg 88%
    16:00 +1°C° 0 mm 2 mps 724 mmHg 91%
    17:00 +1°C° 0 mm 2 mps 724 mmHg 91%
    18:00 +1°C° 0 mm 2 mps 724 mmHg 92%
    19:00 +1°C° 0 mm 2 mps 724 mmHg 92%
    20:00 +1°C° 0 mm 2 mps 724 mmHg 92%
    21:00 +1°C° 0 mm 2 mps 725 mmHg 92%
    22:00 +1°C° 0 mm 2 mps 725 mmHg 92%
    23:00 +1°C° 0 mm 2 mps 725 mmHg 92%

    23 November, Friday

    Time Temperature Precipitation Wind Pressure Humidity
    00:00 +2°C° 0 mm 1 mps 725 mmHg 93%
    01:00 +2°C° 0 mm 1 mps 725 mmHg 93%
    02:00 +2°C° 0 mm 1 mps 725 mmHg 93%
    03:00 +2°C° 0 mm 1 mps 725 mmHg 93%
    04:00 +2°C° 0 mm 1 mps 725 mmHg 93%
    05:00 +2°C° 0 mm 1 mps 725 mmHg 93%
    06:00 +2°C° 0 mm 1 mps 725 mmHg 93%
    07:00 +3°C° 0 mm 1 mps 725 mmHg 93%
    08:00 +4°C° 0 mm 1 mps 725 mmHg 90%
    09:00 +5°C° 0 mm 1 mps 726 mmHg 88%
    10:00 +6°C° 0 mm 1 mps 726 mmHg 85%
    11:00 +6°C° 0 mm 1 mps 726 mmHg 83%
    12:00 +7°C° 0 mm 1 mps 725 mmHg 81%
    13:00 +8°C° 0 mm 1 mps 725 mmHg 78%
    14:00 +7°C° 0 mm 1 mps 725 mmHg 82%
    15:00 +6°C° 0 mm 1 mps 724 mmHg 86%
    16:00 +5°C° 0 mm 1 mps 724 mmHg 89%
    17:00 +5°C° 0 mm 1 mps 724 mmHg 90%
    18:00 +5°C° 0 mm 1 mps 724 mmHg 90%
    19:00 +4°C° 0 mm 1 mps 724 mmHg 90%
    20:00 +4°C° 0 mm 1 mps 724 mmHg 90%
    21:00 +4°C° 0 mm 1 mps 723 mmHg 90%
    22:00 +5°C° 0 mm 1 mps 723 mmHg 90%
    23:00 +5°C° 0 mm 1 mps 723 mmHg 89%
    Show more